User: anonymous   Login
Location: Tyler Bend Campground
(35.9875°N, 92.7606°W)
Time: 03:35:05
(UTC-05:00)
Language:

CZ-2C R/B - Orbit

View from above orbital plane
View from above orbital plane
View from above satellite
View from above satellite

Ground track
Ground track

The orbit data is extracted from the following two-line orbital elements,

1 36089U 09061B   14294.73493122  .00000586  00000-0  15837-3 0  4646
2 36089 098.0943 322.6842 0083557 149.4008 344.9415 14.49244339261262
Epoch (UTC): 21 October 2014 17:38:18
Eccentricity: 0.0083557
inclination: 98.0943°
perigee height: 669 km
apogee height: 787 km
right ascension of ascending node: 322.6842°
argument of perigee: 149.4008°
revolutions per day: 14.49244339
mean anomaly at epoch: 344.9415°
orbit number at epoch: 26126

The dashed part of the orbit path shows where the satellite is in the earth's shadow,  

DLR